DNO789 LGAV-LCLK

Flight info

Callsign DNO789
Flight time 1h 16m
Altitude 37000
Route KEA UL995 RDS UM601 EVENO M601 BONEK
Aircraft A320/M-SDE3FGHIRWY/LB1

Departure

Time 2026-05-05 16:47
Airport Athens Eleftherios Venizelos International Airport (LGAV)

Arrival

Time 2026-05-05 18:03
Airport Larnaca International Airport (LCLK)
Time Latitude Longitude Altitude Speed Heading
2026-05-05 16:00 37.93694 23.94924 301 ft 0 kts 306°
2026-05-05 16:01 37.93748 23.94975 300 ft 0 kts 306°
2026-05-05 16:37 37.93743 23.94982 302 ft 4 kts 305°
2026-05-05 16:37 37.93728 23.95011 300 ft 4 kts 300°
2026-05-05 16:38 37.93717 23.95041 300 ft 4 kts 283°
2026-05-05 16:38 37.93717 23.95070 300 ft 4 kts 226°
2026-05-05 16:38 37.93720 23.95075 300 ft 0 kts 217°
2026-05-05 16:42 37.93719 23.95073 300 ft 1 kts 216°
2026-05-05 16:42 37.93688 23.95045 301 ft 10 kts 217°
2026-05-05 16:42 37.93612 23.95024 302 ft 15 kts 148°
2026-05-05 16:42 37.93518 23.95011 301 ft 16 kts 218°
2026-05-05 16:43 37.93417 23.94952 300 ft 17 kts 167°
2026-05-05 16:43 37.93308 23.94957 299 ft 18 kts 216°
2026-05-05 16:43 37.93206 23.94861 301 ft 19 kts 216°
2026-05-05 16:43 37.93083 23.94741 300 ft 24 kts 216°
2026-05-05 16:44 37.92956 23.94623 301 ft 20 kts 217°
2026-05-05 16:44 37.92841 23.94514 303 ft 22 kts 218°
2026-05-05 16:44 37.92716 23.94395 302 ft 16 kts 217°
2026-05-05 16:44 37.92626 23.94310 303 ft 16 kts 215°
2026-05-05 16:45 37.92543 23.94313 304 ft 7 kts 126°
2026-05-05 16:45 37.92522 23.94351 306 ft 4 kts 125°
2026-05-05 16:45 37.92502 23.94387 308 ft 10 kts 123°
2026-05-05 16:45 37.92521 23.94486 307 ft 7 kts 39°
2026-05-05 16:46 37.92522 23.94487 307 ft 0 kts 39°
2026-05-05 16:46 37.92522 23.94488 307 ft 1 kts 39°
2026-05-05 16:46 37.92614 23.94575 307 ft 48 kts 37°
2026-05-05 16:46 37.93066 23.95005 297 ft 109 kts 37°
2026-05-05 16:47 37.93801 23.95701 287 ft 156 kts 36°
2026-05-05 16:47 37.94697 23.96536 735 ft 159 kts 37°
2026-05-05 16:47 37.95580 23.97402 1293 ft 161 kts 39°
2026-05-05 16:47 37.96469 23.98273 1830 ft 162 kts 37°
2026-05-05 16:48 37.97389 23.99155 2162 ft 174 kts 37°
2026-05-05 16:48 37.98420 24.00140 2374 ft 196 kts 36°
2026-05-05 16:48 37.99576 24.01243 2587 ft 220 kts 36°
2026-05-05 16:48 38.00860 24.02473 2962 ft 239 kts 36°
2026-05-05 16:49 38.02202 24.03762 3695 ft 244 kts 36°
2026-05-05 16:49 38.03566 24.05074 4486 ft 248 kts 35°
2026-05-05 16:49 38.04949 24.06404 5304 ft 250 kts 34°
2026-05-05 16:49 38.06341 24.07753 6111 ft 256 kts 36°
2026-05-05 16:50 38.07481 24.09577 6669 ft 275 kts 63°
2026-05-05 16:50 38.07822 24.11996 7376 ft 288 kts 93°
2026-05-05 16:50 38.07147 24.14385 8120 ft 298 kts 124°
2026-05-05 16:50 38.05734 24.16340 8909 ft 302 kts 133°
2026-05-05 16:51 38.04237 24.18237 9696 ft 304 kts 133°
2026-05-05 16:51 38.02714 24.20150 10342 ft 312 kts 133°
2026-05-05 16:51 38.01141 24.22132 10514 ft 334 kts 133°
2026-05-05 16:51 37.99429 24.24295 10681 ft 355 kts 133°
2026-05-05 16:52 37.97660 24.26536 11191 ft 363 kts 133°
2026-05-05 16:52 37.95877 24.28796 11820 ft 367 kts 133°
2026-05-05 16:52 37.94056 24.31106 12451 ft 370 kts 133°
2026-05-05 16:52 37.92247 24.33402 13080 ft 374 kts 133°
2026-05-05 16:53 37.90398 24.35746 13716 ft 377 kts 132°
2026-05-05 16:53 37.88528 24.38115 14288 ft 381 kts 132°
2026-05-05 16:53 37.86646 24.40498 14814 ft 385 kts 132°
2026-05-05 16:53 37.84738 24.42911 15327 ft 389 kts 132°
2026-05-05 16:54 37.82832 24.45315 15829 ft 393 kts 133°
2026-05-05 16:54 37.80884 24.47775 16324 ft 397 kts 132°
2026-05-05 16:54 37.78922 24.50262 16830 ft 401 kts 130°
2026-05-05 16:54 37.77285 24.53102 17328 ft 399 kts 115°
2026-05-05 16:55 37.75997 24.56238 17854 ft 403 kts 114°
2026-05-05 16:55 37.74730 24.59371 18373 ft 407 kts 113°
2026-05-05 16:55 37.73439 24.62575 18831 ft 411 kts 113°
2026-05-05 16:55 37.72131 24.65815 19296 ft 415 kts 114°
2026-05-05 16:56 37.70806 24.69089 19760 ft 420 kts 114°
2026-05-05 16:56 37.69480 24.72359 20223 ft 424 kts 114°
2026-05-05 16:56 37.68119 24.75705 20677 ft 429 kts 114°
2026-05-05 16:56 37.66743 24.79081 21121 ft 433 kts 114°
2026-05-05 16:57 37.65373 24.82439 21552 ft 437 kts 114°
2026-05-05 16:57 37.63974 24.85866 21982 ft 441 kts 114°
2026-05-05 16:57 37.62553 24.89335 22383 ft 446 kts 114°
2026-05-05 16:57 37.61122 24.92825 22786 ft 450 kts 114°
2026-05-05 16:58 37.59679 24.96340 23184 ft 454 kts 114°
2026-05-05 16:58 37.58220 24.99893 23580 ft 457 kts 114°
2026-05-05 16:58 37.56745 25.03486 23928 ft 461 kts 114°
2026-05-05 16:58 37.55278 25.07059 24256 ft 464 kts 114°
2026-05-05 16:59 37.53793 25.10674 24590 ft 467 kts 114°
2026-05-05 16:59 37.52288 25.14328 24919 ft 470 kts 114°
2026-05-05 16:59 37.50774 25.17997 25244 ft 472 kts 114°
2026-05-05 16:59 37.49250 25.21681 25566 ft 475 kts 114°
2026-05-05 17:00 37.47714 25.25392 25870 ft 477 kts 114°
2026-05-05 17:00 37.46187 25.29076 26185 ft 480 kts 114°
2026-05-05 17:00 37.44638 25.32809 26484 ft 482 kts 114°
2026-05-05 17:00 37.43075 25.36576 26849 ft 484 kts 114°
2026-05-05 17:01 37.41511 25.40348 27190 ft 486 kts 114°
2026-05-05 17:01 37.39952 25.44095 27476 ft 488 kts 114°
2026-05-05 17:01 37.38364 25.47894 27756 ft 492 kts 114°
2026-05-05 17:01 37.36771 25.51708 28050 ft 494 kts 114°
2026-05-05 17:02 37.35180 25.55524 28343 ft 497 kts 114°
2026-05-05 17:02 37.33574 25.59373 28737 ft 496 kts 114°
2026-05-05 17:02 37.31970 25.63214 29169 ft 496 kts 114°
2026-05-05 17:02 37.30357 25.67071 29626 ft 495 kts 114°
2026-05-05 17:03 37.28768 25.70862 30069 ft 495 kts 114°
2026-05-05 17:03 37.27156 25.74692 30444 ft 494 kts 114°
2026-05-05 17:03 37.25542 25.78517 30802 ft 494 kts 114°
2026-05-05 17:03 37.23932 25.82329 31176 ft 493 kts 114°
2026-05-05 17:04 37.22348 25.86082 31544 ft 493 kts 114°
2026-05-05 17:04 37.20738 25.89901 31911 ft 492 kts 114°
2026-05-05 17:04 37.19132 25.93712 32281 ft 492 kts 114°
2026-05-05 17:04 37.17548 25.97465 32664 ft 492 kts 115°
2026-05-05 17:05 37.15944 26.01256 33036 ft 491 kts 115°
2026-05-05 17:05 37.14341 26.05038 33412 ft 491 kts 115°
2026-05-05 17:05 37.12730 26.08832 33786 ft 490 kts 115°
2026-05-05 17:05 37.11145 26.12567 34130 ft 490 kts 115°
2026-05-05 17:06 37.09538 26.16351 34423 ft 489 kts 115°
2026-05-05 17:06 37.07935 26.20110 34705 ft 489 kts 115°
2026-05-05 17:06 37.06347 26.23830 34978 ft 489 kts 115°
2026-05-05 17:06 37.04740 26.27584 35283 ft 488 kts 115°
2026-05-05 17:07 37.03136 26.31324 35571 ft 487 kts 115°
2026-05-05 17:07 37.01536 26.35058 35848 ft 486 kts 115°
2026-05-05 17:07 36.99955 26.38746 36105 ft 485 kts 115°
2026-05-05 17:07 36.98354 26.42479 36356 ft 485 kts 116°
2026-05-05 17:08 36.96756 26.46204 36599 ft 484 kts 116°
2026-05-05 17:08 36.95176 26.49883 36811 ft 484 kts 116°
2026-05-05 17:08 36.93580 26.53604 37005 ft 485 kts 116°
2026-05-05 17:08 36.91975 26.57341 37068 ft 488 kts 116°
2026-05-05 17:09 36.88732 26.64855 37049 ft 496 kts 116°
2026-05-05 17:09 36.85439 26.72442 37044 ft 497 kts 116°
2026-05-05 17:10 36.82134 26.80058 37037 ft 497 kts 116°
2026-05-05 17:10 36.78852 26.87617 37053 ft 498 kts 116°
2026-05-05 17:11 36.75539 26.95234 37049 ft 498 kts 116°
2026-05-05 17:11 36.72244 27.02776 37046 ft 497 kts 116°
2026-05-05 17:12 36.68920 27.10353 37046 ft 498 kts 116°
2026-05-05 17:12 36.65951 27.18123 37070 ft 496 kts 111°
2026-05-05 17:13 36.63211 27.25966 37058 ft 495 kts 111°
2026-05-05 17:13 36.60454 27.33835 37055 ft 495 kts 111°
2026-05-05 17:14 36.57678 27.41707 37052 ft 495 kts 111°
2026-05-05 17:14 36.54927 27.49502 37052 ft 495 kts 111°
2026-05-05 17:15 36.52156 27.57344 37050 ft 495 kts 111°
2026-05-05 17:15 36.49381 27.65183 37044 ft 495 kts 111°
2026-05-05 17:16 36.46597 27.73024 37035 ft 495 kts 111°
2026-05-05 17:16 36.44274 27.79522 37032 ft 495 kts 112°
2026-05-05 17:17 36.41022 27.88605 37024 ft 495 kts 112°
2026-05-05 17:17 36.38695 27.95100 37023 ft 495 kts 112°
2026-05-05 17:18 36.35915 28.02830 37023 ft 495 kts 112°
2026-05-05 17:18 36.33328 28.10743 37035 ft 492 kts 104°
2026-05-05 17:19 36.31275 28.18850 37033 ft 493 kts 105°
2026-05-05 17:19 36.29209 28.26958 37018 ft 493 kts 105°
2026-05-05 17:20 36.27124 28.35080 37011 ft 494 kts 105°
2026-05-05 17:20 36.25028 28.43201 37008 ft 494 kts 105°
2026-05-05 17:21 36.22935 28.51302 37007 ft 494 kts 105°
2026-05-05 17:22 36.19802 28.63409 37002 ft 494 kts 105°
2026-05-05 17:22 36.17683 28.71509 37012 ft 495 kts 106°
2026-05-05 17:23 36.15554 28.79610 37005 ft 495 kts 106°
2026-05-05 17:23 36.13419 28.87700 37003 ft 495 kts 106°
2026-05-05 17:24 36.11289 28.95792 37006 ft 495 kts 106°
2026-05-05 17:24 36.09158 29.03873 37007 ft 494 kts 106°
2026-05-05 17:25 36.07018 29.11958 37007 ft 494 kts 106°
2026-05-05 17:25 36.04885 29.19982 37009 ft 494 kts 106°
2026-05-05 17:26 36.02726 29.28057 37015 ft 494 kts 107°
2026-05-05 17:26 36.00565 29.36135 37015 ft 494 kts 107°
2026-05-05 17:27 35.98406 29.44198 37019 ft 494 kts 107°
2026-05-05 17:27 35.96239 29.52251 37016 ft 494 kts 107°
2026-05-05 17:28 35.94066 29.60299 37026 ft 494 kts 107°
2026-05-05 17:28 35.91919 29.68299 37026 ft 494 kts 107°
2026-05-05 17:29 35.89752 29.76344 37026 ft 494 kts 107°
2026-05-05 17:29 35.87579 29.84385 37034 ft 494 kts 107°
2026-05-05 17:30 35.85398 29.92419 37030 ft 494 kts 107°
2026-05-05 17:30 35.83210 30.00445 37025 ft 493 kts 108°
2026-05-05 17:31 35.81132 30.08455 37033 ft 492 kts 106°
2026-05-05 17:31 35.79131 30.16530 37020 ft 492 kts 105°
2026-05-05 17:32 35.77141 30.24602 37025 ft 492 kts 106°
2026-05-05 17:32 35.75107 30.32655 37023 ft 493 kts 106°
2026-05-05 17:33 35.73060 30.40659 37022 ft 493 kts 106°
2026-05-05 17:33 35.70998 30.48727 37034 ft 492 kts 106°
2026-05-05 17:34 35.68948 30.56773 37028 ft 492 kts 106°
2026-05-05 17:34 35.66891 30.64815 37034 ft 492 kts 107°
2026-05-05 17:35 35.64823 30.72803 37031 ft 492 kts 107°
2026-05-05 17:35 35.62743 30.80837 37035 ft 492 kts 107°
2026-05-05 17:36 35.60675 30.88878 37037 ft 492 kts 106°
2026-05-05 17:36 35.58658 30.96865 37053 ft 492 kts 106°
2026-05-05 17:37 35.56635 31.04920 37035 ft 493 kts 106°
2026-05-05 17:37 35.54605 31.12955 37030 ft 493 kts 107°
2026-05-05 17:38 35.52549 31.20988 37036 ft 493 kts 107°
2026-05-05 17:38 35.50485 31.29020 37035 ft 493 kts 107°
2026-05-05 17:39 35.48435 31.36998 37031 ft 493 kts 107°
2026-05-05 17:39 35.46369 31.45025 37035 ft 493 kts 107°
2026-05-05 17:39 35.45335 31.49046 36932 ft 494 kts 107°
2026-05-05 17:40 35.44304 31.53053 36668 ft 493 kts 107°
2026-05-05 17:40 35.43267 31.57062 36410 ft 493 kts 107°
2026-05-05 17:40 35.42226 31.61071 36156 ft 493 kts 107°
2026-05-05 17:40 35.41186 31.65073 35910 ft 493 kts 107°
2026-05-05 17:41 35.40158 31.69027 35340 ft 494 kts 107°
2026-05-05 17:41 35.39092 31.73126 34446 ft 501 kts 107°
2026-05-05 17:41 35.38042 31.77151 33455 ft 506 kts 107°
2026-05-05 17:41 35.36967 31.81271 32517 ft 508 kts 107°
2026-05-05 17:42 35.35887 31.85409 31667 ft 508 kts 108°
2026-05-05 17:42 35.34815 31.89507 31156 ft 501 kts 108°
2026-05-05 17:42 35.33750 31.93568 30498 ft 499 kts 108°
2026-05-05 17:42 35.32694 31.97614 29824 ft 496 kts 109°
2026-05-05 17:43 35.32394 31.98756 29637 ft 495 kts 109°
2026-05-05 17:43 35.31448 32.02351 29083 ft 491 kts 108°
2026-05-05 17:44 35.30716 32.05119 28651 ft 487 kts 109°
2026-05-05 17:44 35.29674 32.09048 28084 ft 483 kts 109°
2026-05-05 17:44 35.28649 32.12953 27510 ft 478 kts 108°
2026-05-05 17:44 35.27641 32.16811 26953 ft 474 kts 108°
2026-05-05 17:45 35.26646 32.20631 26405 ft 470 kts 108°
2026-05-05 17:45 35.25653 32.24426 25861 ft 466 kts 108°
2026-05-05 17:45 35.24663 32.28205 25320 ft 462 kts 108°
2026-05-05 17:45 35.23698 32.31887 24806 ft 459 kts 108°
2026-05-05 17:46 35.22724 32.35594 24298 ft 456 kts 108°
2026-05-05 17:46 35.21750 32.39284 23799 ft 453 kts 108°
2026-05-05 17:46 35.20781 32.42951 23255 ft 451 kts 108°
2026-05-05 17:46 35.19821 32.46584 22780 ft 447 kts 108°
2026-05-05 17:47 35.18869 32.50184 22298 ft 443 kts 108°
2026-05-05 17:47 35.17922 32.53769 21814 ft 440 kts 108°
2026-05-05 17:47 35.16982 32.57317 21335 ft 438 kts 108°
2026-05-05 17:47 35.16043 32.60845 20833 ft 436 kts 108°
2026-05-05 17:48 35.15104 32.64365 20351 ft 434 kts 108°
2026-05-05 17:48 35.14168 32.67866 19833 ft 433 kts 108°
2026-05-05 17:48 35.13245 32.71321 19331 ft 432 kts 107°
2026-05-05 17:48 35.12312 32.74813 18793 ft 431 kts 108°
2026-05-05 17:49 35.11386 32.78272 18404 ft 426 kts 107°
2026-05-05 17:49 35.10463 32.81718 17866 ft 424 kts 108°
2026-05-05 17:49 35.09553 32.85104 17429 ft 417 kts 107°
2026-05-05 17:49 35.08651 32.88453 16924 ft 414 kts 107°
2026-05-05 17:50 35.07754 32.91772 16420 ft 410 kts 107°
2026-05-05 17:50 35.06859 32.95069 15920 ft 406 kts 108°
2026-05-05 17:50 35.05952 32.98309 15445 ft 402 kts 108°
2026-05-05 17:50 35.05032 33.01513 14956 ft 397 kts 108°
2026-05-05 17:51 35.04114 33.04677 14500 ft 393 kts 108°
2026-05-05 17:51 35.03201 33.07806 14031 ft 388 kts 108°
2026-05-05 17:51 35.02300 33.10894 13538 ft 384 kts 108°
2026-05-05 17:51 35.01413 33.13952 13012 ft 380 kts 108°
2026-05-05 17:52 35.00549 33.16941 12467 ft 376 kts 108°
2026-05-05 17:52 34.99687 33.19933 11978 ft 372 kts 108°
2026-05-05 17:52 34.98833 33.22899 11465 ft 369 kts 108°
2026-05-05 17:52 34.97986 33.25836 10970 ft 365 kts 108°
2026-05-05 17:53 34.97153 33.28710 10797 ft 352 kts 108°
2026-05-05 17:53 34.96350 33.31471 10671 ft 339 kts 108°
2026-05-05 17:53 34.95574 33.34135 10547 ft 327 kts 108°
2026-05-05 17:53 34.94836 33.36673 10427 ft 316 kts 108°
2026-05-05 17:54 34.94111 33.39162 10246 ft 309 kts 108°
2026-05-05 17:54 34.93394 33.41623 9958 ft 306 kts 108°
2026-05-05 17:54 34.92687 33.44055 9615 ft 303 kts 108°
2026-05-05 17:54 34.91983 33.46470 9265 ft 301 kts 108°
2026-05-05 17:55 34.91282 33.48870 8918 ft 299 kts 108°
2026-05-05 17:55 34.90588 33.51244 8469 ft 295 kts 108°
2026-05-05 17:55 34.89901 33.53585 7852 ft 292 kts 108°
2026-05-05 17:55 34.89228 33.55879 7264 ft 289 kts 108°
2026-05-05 17:56 34.88554 33.58175 6684 ft 287 kts 108°
2026-05-05 17:56 34.87936 33.60476 6083 ft 284 kts 101°
2026-05-05 17:56 34.87784 33.62838 5526 ft 278 kts 85°
2026-05-05 17:56 34.88168 33.65121 4968 ft 273 kts 69°
2026-05-05 17:57 34.88892 33.67260 4597 ft 273 kts 67°
2026-05-05 17:57 34.89613 33.69387 4238 ft 272 kts 66°
2026-05-05 17:57 34.90346 33.71565 3685 ft 279 kts 66°
2026-05-05 17:57 34.91073 33.73730 3492 ft 272 kts 66°
2026-05-05 17:58 34.91769 33.75807 3384 ft 263 kts 66°
2026-05-05 17:58 34.92480 33.77824 3274 ft 253 kts 59°
2026-05-05 17:58 34.93668 33.79285 3079 ft 236 kts 24°
2026-05-05 17:58 34.95194 33.79636 2926 ft 219 kts 351°
2026-05-05 17:59 34.96563 33.78978 2772 ft 209 kts 320°
2026-05-05 17:59 34.97428 33.77632 2626 ft 199 kts 291°
2026-05-05 17:59 34.97642 33.76033 2518 ft 188 kts 265°
2026-05-05 17:59 34.97245 33.74557 2350 ft 181 kts 239°
2026-05-05 18:00 34.96430 33.73445 2149 ft 176 kts 230°
2026-05-05 18:00 34.95596 33.72397 1913 ft 167 kts 226°
2026-05-05 18:00 34.94794 33.71452 1703 ft 153 kts 227°
2026-05-05 18:00 34.94055 33.70562 1512 ft 148 kts 228°
2026-05-05 18:01 34.93334 33.69684 1332 ft 146 kts 227°
2026-05-05 18:01 34.92620 33.68812 1151 ft 145 kts 228°
2026-05-05 18:01 34.91906 33.67940 986 ft 145 kts 228°
2026-05-05 18:01 34.91204 33.67078 814 ft 145 kts 226°
2026-05-05 18:02 34.90495 33.66202 609 ft 144 kts 226°
2026-05-05 18:02 34.89792 33.65342 357 ft 142 kts 226°
2026-05-05 18:02 34.89111 33.64506 213 ft 134 kts 226°
2026-05-05 18:02 34.88450 33.63734 88 ft 131 kts 227°
2026-05-05 18:03 34.87875 33.63005 23 ft 99 kts 225°
2026-05-05 18:03 34.87513 33.62561 20 ft 50 kts 225°
2026-05-05 18:03 34.87343 33.62348 21 ft 18 kts 235°
2026-05-05 18:03 34.87346 33.62328 21 ft 3 kts 295°
2026-05-05 18:04 34.87396 33.62262 21 ft 15 kts 315°
2026-05-05 18:04 34.87453 33.62150 20 ft 17 kts 261°
2026-05-05 18:04 34.87395 33.62060 20 ft 12 kts 224°
2026-05-05 18:04 34.87328 33.61979 20 ft 16 kts 225°
2026-05-05 18:05 34.87247 33.61877 21 ft 19 kts 226°
2026-05-05 18:05 34.87134 33.61737 21 ft 25 kts 224°
2026-05-05 18:05 34.86989 33.61561 22 ft 33 kts 225°
2026-05-05 18:05 34.86885 33.61434 21 ft 22 kts 225°
2026-05-05 18:06 34.86772 33.61295 22 ft 24 kts 224°
2026-05-05 18:06 34.86686 33.61192 22 ft 28 kts 225°
2026-05-05 18:06 34.86667 33.61041 20 ft 16 kts 316°
2026-05-05 18:06 34.86751 33.60940 20 ft 18 kts 315°
2026-05-05 18:07 34.86834 33.60840 20 ft 14 kts 315°
2026-05-05 18:07 34.86879 33.60858 20 ft 8 kts 44°
2026-05-05 18:07 34.86907 33.60895 20 ft 0 kts 44°